Weather History for Lone Rock, WI

Change the Weather History Date:

Saturday, May 11, 2013

  Actual Average Record
Temperature  
Mean Temperature 49 °F -  
Max Temperature 55 °F 65 °F 90 °F (2011)
Min Temperature 43 °F 45 °F 37 °F (2006)
Degree Days  
Heating Degree Days 16    
Moisture  
Dew Point 34 °F    
Average Humidity 59    
Maximum Humidity 93    
Minimum Humidity 33    
Precipitation  
Precipitation 0.01 in - - ()
Sea Level Pressure  
Sea Level Pressure 29.94 in    
Wind  
Wind Speed 9 mph (NW)    
Max Wind Speed 24 mph    
Max Gust Speed 40 mph    
Visibility 9 miles    
Events      
Averages and records for this station are not official NWS values.
T = Trace of Precipitation, MM = Missing Value Source: NWS Daily Summary

Daily Weather History Graph

Daily Weather History Graph

Search for Another Location

Airport:

Trip Planner

Search our weather history database for the weather conditions in past years. The results will help you decide how hot, cold, wet, or windy it might be!

Date:

Astronomy

May. 11, 2013 Rise Set
Actual Time 5:41 AM CDT 8:13 PM CDT
Civil Twilight 5:08 AM CDT 8:46 PM CDT
Nautical Twilight 4:28 AM CDT 9:26 PM CDT
Astronomical Twilight 3:42 AM CDT 10:12 PM CDT
Moon 6:48 AM CDT (5/11) 9:55 PM CDT (5/11)
Length of Visible Light 15h 37m
Length of Day
14h 32m
Waxing Crescent, 3% of the Moon is Illuminated
May 11
Waxing Crescent
May 17
First Quarter
May 24
Full
May 31
Last Quarter
Jun 8
New

Hourly Weather History & Observations

Time (CDT) Temp. Windchill Dew Point Humidity Pressure Visibility Wind Dir Wind Speed Gust Speed Precip Events Conditions
12:56 AM 46.9 °F - 44.1 °F 90% 29.94 in 10.0 mi Calm Calm - N/A   Clear
1:56 AM 46.9 °F - 45.0 °F 93% 29.92 in 10.0 mi Calm Calm - N/A   Clear
2:56 AM 48.0 °F - 46.0 °F 93% 29.89 in 10.0 mi Calm Calm - N/A   Clear
3:56 AM 48.0 °F - 46.0 °F 93% 29.87 in 7.0 mi Calm Calm - N/A   Scattered Clouds
4:56 AM 48.9 °F - 46.9 °F 93% 29.85 in 6.0 mi Calm Calm - N/A   Overcast
5:56 AM 48.9 °F - 46.9 °F 93% 29.82 in 5.0 mi SE 4.6 mph - N/A   Mostly Cloudy
6:56 AM 51.1 °F - 48.0 °F 89% 29.82 in 6.0 mi Variable 3.5 mph - N/A   Scattered Clouds
7:46 AM 53.6 °F - 46.4 °F 77% 29.83 in 10.0 mi WNW 19.6 mph 27.6 mph N/A   Mostly Cloudy
7:56 AM 53.1 °F - 45.0 °F 74% 29.83 in 10.0 mi WNW 21.9 mph 32.2 mph N/A   Mostly Cloudy
8:56 AM 50.0 °F - 37.9 °F 63% 29.89 in 10.0 mi NNW 24.2 mph 40.3 mph 0.01 in   Mostly Cloudy
9:05 AM 50.0 °F - 37.4 °F 62% 29.90 in 10.0 mi NW 18.4 mph 32.2 mph N/A   Mostly Cloudy
9:56 AM 53.1 °F - 37.0 °F 55% 29.89 in 10.0 mi NW 19.6 mph 25.3 mph N/A   Clear
10:56 AM 52.0 °F - 28.9 °F 41% 29.93 in 10.0 mi NW 23.0 mph 34.5 mph N/A   Clear
11:56 AM 53.1 °F - 27.0 °F 37% 29.94 in 10.0 mi NNW 23.0 mph 32.2 mph N/A   Clear
12:56 PM 54.0 °F - 27.0 °F 35% 29.95 in 10.0 mi NW 19.6 mph 32.2 mph N/A   Scattered Clouds
1:56 PM 54.0 °F - 27.0 °F 35% 29.96 in 10.0 mi NW 24.2 mph 34.5 mph N/A   Mostly Cloudy
2:56 PM 51.1 °F - 26.1 °F 38% 29.99 in 10.0 mi NW 16.1 mph 40.3 mph 0.00 in   Mostly Cloudy
3:56 PM 52.0 °F - 28.0 °F 40% 29.98 in 10.0 mi NW 10.4 mph 20.7 mph 0.00 in   Partly Cloudy
4:56 PM 51.1 °F - 27.0 °F 39% 30.01 in 10.0 mi NW 21.9 mph 34.5 mph 0.00 in   Mostly Cloudy
5:56 PM 50.0 °F - 21.9 °F 33% 30.02 in 10.0 mi NW 15.0 mph 29.9 mph N/A   Clear
6:56 PM 48.9 °F - 26.1 °F 41% 30.03 in 10.0 mi NW 11.5 mph 19.6 mph N/A   Clear
7:56 PM 48.0 °F - 26.1 °F 42% 30.04 in 10.0 mi NNW 11.5 mph - N/A   Overcast
8:56 PM 46.9 °F - 21.0 °F 36% 30.06 in 10.0 mi NW 13.8 mph 23.0 mph N/A   Partly Cloudy
10:56 PM 44.1 °F 38.6 °F 24.1 °F 45% 30.07 in 10.0 mi WNW 10.4 mph - N/A   Clear
11:56 PM 43.0 °F 37.7 °F 24.1 °F 47% 30.08 in 10.0 mi WNW 9.2 mph - N/A   Clear